Regional Weather Roundup
Issued by NWS

Home | Current Version | Previous Version | Text Only | Print | Product List | Glossary Off
Versions: 1 2 3 4 5 6 7 8 9 10 11 12 13 14 15 16 17 18 19 20 21 22 23 24 25 26 27 28 29 30 31 32 33 34 35 36 37 38 39 40 41 42 43 44 45 46 47 48 49 50

000
ASUS43 KMKX 310621
RWRWI

WISCONSIN REGIONAL WEATHER ROUNDUP
NATIONAL WEATHER SERVICE MILWAUKEE/SULLIVAN WI
100 AM CDT FRI JUL 31 2015

NOTE: "FAIR" INDICATES FEW OR NO CLOUDS BELOW 12,000 FEET WITH NO
SIGNIFICANT WEATHER AND/OR OBSTRUCTIONS TO VISIBILITY.

WIZ001-002-006>008-014>016-023>028-310700-
NORTHWEST WISCONSIN

CITY           SKY/WX    TMP DP  RH WIND       PRES   REMARKS
SUPERIOR ARPT  CLEAR     63  56  80 W7        29.91F
6HR MIN TEMP:  63; 6HR MAX TEMP:  79;

ASHLAND        CLEAR     64  56  75 SW7       29.91S
6HR MIN TEMP:  63; 6HR MAX TEMP:  80;

HAYWARD        CLEAR     60  55  83 S3        29.96F
6HR MIN TEMP:  59; 6HR MAX TEMP:  80;

SIREN          CLEAR     65  56  72 W8        29.98S
6HR MIN TEMP:  65; 6HR MAX TEMP:  80;

CUMBERLAND     CLEAR     61  55  82 W6        29.99F
RICE LAKE      CLEAR     64  57  79 W5        30.00S
6HR MIN TEMP:  64; 6HR MAX TEMP:  78;

CHETEK         CLEAR     70  58  66 W6        29.99S
6HR MIN TEMP:  67; 6HR MAX TEMP:  79;

LADYSMITH      CLEAR     67  58  72 W6        29.99S
6HR MIN TEMP:  66; 6HR MAX TEMP:  79;

EAU CLAIRE     CLEAR     64  57  78 W6        29.99S
6HR MIN TEMP:  64; 6HR MAX TEMP:  81;

MENOMONIE      CLEAR     70  58  64 W7        30.00S
6HR MIN TEMP:  68; 6HR MAX TEMP:  82;

NEW RICHMOND   CLEAR     65  57  76 W7        30.02R
6HR MIN TEMP:  64; 6HR MAX TEMP:  80;

OSCEOLA        CLEAR     67  58  72 W6        30.03S
6HR MIN TEMP:  66; 6HR MAX TEMP:  79;

$$

WIZ003>005-009-010-017-018-310700-
NORTH CENTRAL WISCONSIN

CITY           SKY/WX    TMP DP  RH WIND       PRES   REMARKS
MANITOWISH WTR CLEAR     61  56  84 W3        29.93F
6HR MIN TEMP:  58; 6HR MAX TEMP:  70;

ARBOR VITAE    CLEAR     64  56  74 W5        29.94F
6HR MIN TEMP:  64; 6HR MAX TEMP:  77;

WOODRUFF       CLEAR     64  56  74 W5        29.94F
6HR MIN TEMP:  64; 6HR MAX TEMP:  77;

RHINELANDER    CLEAR     58  54  86 W8        29.96S
6HR MIN TEMP:  58; 6HR MAX TEMP:  74;

EAGLE RIVER    CLEAR     57  56  97 W6        29.93F
6HR MIN TEMP:  57; 6HR MAX TEMP:  68;

LAND O LAKES   CLEAR     60  55  85 W3        29.93F
6HR MIN TEMP:  57; 6HR MAX TEMP:  72;

PHILLIPS       CLEAR     62  56  82 W3        29.96S
6HR MIN TEMP:  62; 6HR MAX TEMP:  76;

TOMAHAWK       CLEAR     55  54  95 CALM      29.97S
6HR MIN TEMP:  55; 6HR MAX TEMP:  69;

MEDFORD        CLEAR     64  57  76 W8        29.99S
6HR MIN TEMP:  64; 6HR MAX TEMP:  76;

MERRILL        NOT AVBL
$$

WIZ029-030-035-036-043>047-310700-
CENTRAL WISCONSIN

CITY           SKY/WX    TMP DP  RH WIND       PRES   REMARKS
WAUSAU         PTCLDY    70  56  61 W12       29.96S
6HR MIN TEMP:  70; 6HR MAX TEMP:  74;

MOSINEE        CLEAR     64  57  77 W8        29.99S
MARSHFIELD     CLEAR     66  56  70 W8        29.99F
6HR MIN TEMP:  65; 6HR MAX TEMP:  79;

STEVENS POINT  CLEAR     67  56  68 W7        29.98F
6HR MIN TEMP:  67; 6HR MAX TEMP:  79;

WAUPACA        CLEAR     70  58  66 W7        29.97F
6HR MIN TEMP:  69; 6HR MAX TEMP:  82;

WAUTOMA        CLEAR     68  58  70 W6        29.99F
6HR MIN TEMP:  67; 6HR MAX TEMP:  84;

WISC RAPIDS    CLEAR     67  57  70 W6        30.00F
6HR MIN TEMP:  66; 6HR MAX TEMP:  81;

CAMP DOUGLAS   CLEAR     65  61  89 NW5       30.00S
6HR MIN TEMP:  64; 6HR MAX TEMP:  79;

$$

WIZ011>013-019>022-031-037>040-048>050-310700-
NORTHEAST WISCONSIN

CITY           SKY/WX    TMP DP  RH WIND       PRES   REMARKS
ANTIGO         CLEAR     60  57  89 W6        29.97S
SHAWANO        CLEAR     69  58  69 W6        29.94F HAZE
6HR MIN TEMP:  66; 6HR MAX TEMP:  77;

OCONTO         CLEAR     65  60  83 W7        29.91S
6HR MIN TEMP:  60; 6HR MAX TEMP:  80;

STURGEON BAY   CLEAR     68  57  68 W9        29.93F
6HR MIN TEMP:  64; 6HR MAX TEMP:  73;

GREEN BAY      CLEAR     66  58  75 W8        29.94F
6HR MIN TEMP:  63; 6HR MAX TEMP:  79;

MANITOWOC      CLEAR     69  58  67 MISG      29.95F
6HR MIN TEMP:  69; 6HR MAX TEMP:  81;

APPLETON       CLEAR     64  54  68 W7        29.97S
CLINTONVILLE   CLEAR     64  55  72 W5        29.95S
OSHKOSH        CLEAR     69  56  62 W5        29.97S
6HR MIN TEMP:  69; 6HR MAX TEMP:  82;

$$

WIZ032>034-041-042-053>061-310700-
SOUTHWEST WISCONSIN

CITY           SKY/WX    TMP DP  RH WIND       PRES   REMARKS
LA CROSSE      CLEAR     68  61  78 CALM      30.00F
6HR MIN TEMP:  68; 6HR MAX TEMP:  83;

SPARTA         PTCLDY    60  56  88 CALM      30.02S
6HR MIN TEMP:  60; 6HR MAX TEMP:  82;

VIROQUA        CLEAR     64  58  81 SW5       30.05S
6HR MIN TEMP:  64; 6HR MAX TEMP:  78;

BOSCOBEL       CLEAR     62  60  93 CALM      30.04S
6HR MIN TEMP:  62; 6HR MAX TEMP:  84;

PRAIRIE DU CHI CLEAR     64  59  85 E3        30.04S
6HR MIN TEMP:  63; 6HR MAX TEMP:  83;

PLATTEVILLE    CLEAR     66  61  82 SW3       30.06S
6HR MIN TEMP:  66; 6HR MAX TEMP:  81;

$$

WIZ056-057-062-063-064-067-068-310700-
SOUTH CENTRAL WISCONSIN

CITY           SKY/WX    TMP DP  RH WIND       PRES   REMARKS
REEDSBURG      CLEAR     67  58  72 CALM      30.02S
6HR MIN TEMP:  66; 6HR MAX TEMP:  82;

BARABOO/DELLS  CLEAR     66  55  67 SW5       30.02S
6HR MIN TEMP:  66; 6HR MAX TEMP:  82;

LONE ROCK      CLEAR     61  57  87 CALM      30.04S
6HR MIN TEMP:  60; 6HR MAX TEMP:  83;

MINERAL POINT  CLEAR     66  59  77 W5        30.06S
MADISON        CLEAR     70  56  61 CALM      30.02S
6HR MIN TEMP:  70; 6HR MAX TEMP:  83;

MIDDLETON      CLEAR     66  56  72 W6        30.04S
6HR MIN TEMP:  62; 6HR MAX TEMP:  83;

WATERTOWN      CLEAR     66  57  74 SW3       30.01S
6HR MIN TEMP:  66; 6HR MAX TEMP:  81;

MONROE         CLEAR     68  59  73 W10       30.05S
JANESVILLE     CLEAR     64  55  72 CALM      30.03S
$$

WIZ051-052-058>065-066-070>072-310700-
SOUTHEAST WISCONSIN

CITY           SKY/WX    TMP DP  RH WIND       PRES   REMARKS
MILWAUKEE      CLEAR     75  54  47 W7        30.00R
6HR MIN TEMP:  75; 6HR MAX TEMP:  86;

WAUKESHA       CLEAR     66  54  63 W5        30.02S
MILWAUKEE/TIMM CLEAR     68  54  60 W7        30.01R
RACINE         CLEAR     69  56  62 W6        30.02R
6HR MIN TEMP:  69; 6HR MAX TEMP:  84;

BURLINGTON     CLEAR     65  55  70 W3        30.02S
6HR MIN TEMP:  65; 6HR MAX TEMP:  81;

KENOSHA        CLEAR     65  57  75 W7        30.02R
6HR MIN TEMP:  65; 6HR MAX TEMP:  82;

FOND DU LAC    CLEAR     68  57  68 SW7       29.98F
6HR MIN TEMP:  68; 6HR MAX TEMP:  82;

SHEBOYGAN      CLEAR     64  56  75 MISG      29.97F
6HR MIN TEMP:  64; 6HR MAX TEMP:  82;

WEST BEND      CLEAR     72  54  53 CALM      29.99S
JUNEAU         CLEAR     65  56  73 W6        30.02S
6HR MIN TEMP:  65; 6HR MAX TEMP:  80;

$$

LSZ147-162-310700-
LAKE SUPERIOR

STATION/POSITION TIME  TEMP    WIND        PRES    WAVE
                       AIR SEA DIR/SP/G            HT/PER
                 (UTC) (F)     (DEG/KT/KT) (MB)    (FT/S)
W MID LAKE BUOY  0550   58 53  210/  8/ 10 1010.4F   1
DEVILS ISLAND    0600   61     260/ 14/ 16 1011.6R
PORT WING        0500   69     210/  8/ 11 1012.5F
SAXON HARBOR     0540   69                 1011.9S
$$

LMZ867-665-643>646-310700-
LAKE MICHIGAN

STATION/POSITION TIME  TEMP    WIND        PRES    WAVE
                       AIR SEA DIR/SP/G            HT/PER


USA.gov is the U.S. government's official web portal to all federal, state and local government web resources and services.